Probability
45 45 48 48 48 52 52 48 45 45 45 45 48 39 42 42 45 52 39 35 45 48 39 42 45 52 42 42 39 39 39 35 32 32 26 39 45 45 39 42 35 39 29
45 48 48 48 45 42 48 48 45 45 45 45 52 52 45 39 55 52 48 45 45 42 42 42 48 48 45 45 48 42 45 52 45 42 39 39 48 45 48 45 29 29 35
35 39 42 45 42 35 39 42 42 42 42 45 52 52 45 48 52 52 52 52 48 52 52 52 48 45 48 45 48 45 45 35 45 42 35 42 32 32 35 35 32 39 29
39 39 45 45 39 35 35 39 42 45 48 48 39 45 45 48 42 42 45 42 48 48 45 45 45 45 42 45 45 48 39 42 42 39 35 39 42 35 42 42 35 35 35
42 45 48 42 42 39 39 39 42 42 39 45 45 45 42 45 39 35 35 39 39 45 42 42 42 42 39 39 29 35 39 42 39 42 39 42 39 45 42 35 35 32 32
42 35 35 42 42 42 39 39 39 42 39 42 48 45 45 35 19 16 26 39 39 39 42 45 45 42 32 6 6 10 23 29 39 42 42 42 42 42 52 32 35 29 35
42 32 35 35 39 39 39 39 35 42 42 42 42 39 42 35 13 0 0 32 35 42 42 39 35 32 29 39 26 3 6 6 6 42 35 39 39 32 42 29 42 29 35
35 32 35 39 35 35 39 42 39 39 39 39 39 42 42 29 16 3 0 13 39 39 32 39 39 42 29 29 42 35 32 26 13 16 29 35 39 39 45 39 35 29 29
26 29 29 32 32 32 39 35 39 39 39 42 42 39 39 35 16 3 0 32 32 35 35 39 39 35 23 10 29 35 35 35 10 3 6 10 10 6 10 23 23 23 19
13 16 23 26 26 29 35 32 32 32 32 35 32 32 35 26 13 0 0 23 29 29 32 35 16 26 19 6 29 29 23 26 32 26 6 3 3 6 3 19 26 26 16
13 13 19 26 26 32 32 32 32 32 29 29 32 32 32 19 16 3 0 19 16 16 23 26 19 10 0 0 6 23 23 19 23 29 29 29 29 32 26 16 23 23 19
19 19 19 23 19 16 26 29 26 29 29 26 29 29 23 19 13 0 0 0 6 13 16 16 13 3 0 0 0 10 6 3 16 23 23 32 29 29 26 23 23 26 26
23 26 26 26 26 23 19 26 29 29 26 26 16 16 16 16 10 3 0 0 0 6 13 6 6 3 0 0 0 0 0 3 23 19 23 23 26 26 19 26 26 29 26
19 26 29 26 23 19 19 19 19 19 16 13 10 13 10 16 16 13 10 3 0 0 3 0 0 0 0 0 0 0 3 3 10 16 16 16 19 16 19 19 13 13 19
19 16 16 16 10 13 13 16 16 16 13 13 10 10 13 13 6 6 10 3 6 6 3 6 6 6 6 6 6 10 10 10 10 6 13 10 16 13 16 16 16 10 13
13 13 10 13 10 10 6 6 3 6 3 3 3 3 6 6 3 3 3 3 3 3 3 6 10 10 10 10 10 10 10 6 6 10 6 6 6 10 10 13 13 10 10
13 6 13 10 10 10 10 6 3 3 3 0 0 3 3 3 3 3 0 0 0 0 3 3 6 6 10 6 6 6 3 6 6 6 6 10 10 6 6 6 6 3 6
6 3 3 10 10 6 6 3 3 3 3 10 0 0 0 0 0 0 0 0 0 0 3 3 6 6 6 3 3 3 3 3 6 6 6 6 6 10 6 3 3 3 3
3 6 10 10 6 6 3 3 3 3 3 6 3 3 0 0 0 0 0 3 3 3 3 3 3 3 0 0 0 3 0 3 6 6 6 6 6 6 6 3 3 3 3
6 6 10 6 6 3 3 3 3 6 6 6 3 3 0 0 3 0 0 3 3 3 3 0 0 3 3 3 3 0 0 0 0 3 3 3 3 6 3 3 3 3 3
6 10 3 3 3 3 3 3 3 6 6 6 6 3 3 6 3 3 3 3 0 0 0 0 3 3 3 3 3 0 0 0 0 0 0 3 3 3 3 3 3 3 3
10 3 3 3 3 3 3 6 6 3 3 3 3 0 0 0 3 0 0 0 0 0 0 0 0 3 3 3 3 3 0 0 0 0 0 3 3 3 3 3 3 3 3
3 3 3 3 3 3 3 3 3 3 3 0 0 0 0 3 3 3 0 0 0 0 0 0 0 3 3 3 3 3 3 0 0 0 0 0 3 3 3 3 3 3 0
3 3 3 3 3 3 3 3 0 0 0 0 3 3 3 3 3 3 3 3 0 0 0 0 0 0 3 3 3 3 3 3 0 0 0 0 0 0 0 0 0 0 0
3 3 3 0 0 0 0 0 0 3 3 0 3 3 3 3 3 3 3 3 0 0 0 0 0 0 0 3 3 3 0 0 0 0 0 0 0 0 0 0 0 0 0
0 0 0 0 0 0 0 0 0 3 3 3 3 3 3 3 3 3 0 0 0 0 0 0 0 0 0 3 0 0 0 0 0 0 0 0 0 0 0 0 0 0 0
Height
5885 5884 5884 5884 5883 5883 5883 5883 5882 5882 5881 5881 5880 5880 5879 5878 5877 5876 5875 5874 5874 5873 5872 5872 5871 5869 5868 5867 5866 5865 5864 5863 5862 5861 5860 5859 5858 5857 5856 5855 5854 5854 5853
5881 5881 5881 5881 5880 5880 5880 5880 5879 5879 5878 5878 5877 5876 5875 5875 5874 5873 5871 5870 5870 5869 5868 5867 5866 5865 5864 5862 5861 5860 5859 5858 5858 5856 5855 5853 5853 5852 5851 5850 5848 5847 5847
5877 5877 5877 5877 5877 5877 5877 5876 5876 5875 5875 5874 5873 5872 5871 5870 5869 5868 5867 5866 5865 5864 5863 5862 5861 5860 5859 5858 5856 5855 5854 5853 5852 5851 5849 5848 5847 5846 5845 5844 5842 5841 5840
5873 5872 5872 5872 5872 5872 5872 5872 5871 5871 5870 5869 5868 5867 5867 5865 5864 5863 5862 5861 5860 5859 5858 5857 5855 5854 5853 5852 5851 5850 5849 5847 5846 5845 5844 5842 5841 5839 5838 5837 5836 5834 5833
5868 5867 5867 5867 5867 5867 5867 5866 5866 5866 5865 5864 5863 5862 5861 5860 5859 5858 5856 5855 5854 5853 5852 5851 5850 5849 5848 5847 5845 5844 5843 5841 5840 5838 5837 5836 5834 5832 5831 5830 5828 5827 5825
5863 5862 5862 5862 5862 5862 5861 5861 5860 5860 5859 5858 5857 5856 5855 5854 5853 5851 5850 5848 5847 5846 5845 5844 5843 5842 5841 5840 5838 5837 5835 5834 5833 5831 5830 5828 5827 5825 5823 5822 5820 5819 5817
5858 5857 5857 5857 5856 5856 5855 5855 5854 5853 5852 5851 5850 5849 5848 5847 5846 5844 5843 5841 5840 5839 5838 5836 5835 5834 5833 5832 5830 5829 5828 5826 5825 5823 5822 5820 5819 5817 5815 5813 5812 5810 5809
5852 5851 5851 5851 5850 5849 5849 5848 5847 5846 5845 5844 5843 5842 5841 5839 5837 5836 5835 5833 5832 5831 5830 5828 5827 5826 5824 5823 5822 5821 5819 5818 5816 5814 5813 5811 5810 5808 5806 5805 5803 5801 5799
5845 5845 5845 5844 5843 5842 5841 5840 5839 5837 5836 5835 5834 5833 5832 5831 5830 5828 5827 5825 5824 5822 5821 5820 5819 5817 5816 5815 5813 5811 5809 5808 5806 5805 5804 5802 5800 5798 5797 5795 5793 5791 5789
5838 5837 5837 5836 5836 5834 5833 5832 5830 5829 5828 5827 5825 5824 5823 5822 5821 5819 5818 5816 5815 5813 5812 5811 5809 5808 5807 5805 5803 5801 5799 5798 5796 5794 5793 5792 5790 5788 5786 5784 5782 5780 5779
5830 5830 5829 5829 5828 5826 5825 5824 5822 5820 5819 5818 5817 5815 5814 5813 5812 5810 5809 5807 5805 5803 5802 5801 5800 5798 5796 5794 5792 5790 5789 5787 5785 5783 5782 5780 5779 5777 5775 5774 5772 5770 5768
5823 5822 5822 5821 5820 5818 5817 5815 5813 5812 5810 5809 5808 5806 5805 5803 5802 5800 5799 5797 5795 5793 5791 5790 5789 5787 5785 5783 5781 5779 5777 5775 5773 5772 5770 5768 5767 5765 5763 5762 5760 5758 5757
5815 5815 5814 5813 5811 5810 5808 5806 5805 5803 5801 5800 5798 5797 5795 5794 5792 5790 5789 5787 5785 5783 5781 5779 5777 5776 5774 5772 5770 5768 5765 5763 5762 5760 5758 5756 5754 5752 5751 5749 5748 5746 5745
5807 5806 5806 5805 5803 5802 5800 5798 5796 5794 5793 5791 5789 5787 5786 5784 5782 5780 5778 5776 5774 5772 5770 5768 5766 5764 5762 5760 5758 5756 5753 5751 5749 5747 5744 5743 5741 5739 5738 5736 5735 5734 5732
5799 5798 5797 5796 5795 5793 5792 5790 5788 5786 5784 5782 5780 5778 5776 5774 5772 5770 5767 5765 5763 5761 5759 5757 5755 5753 5751 5749 5746 5744 5741 5739 5736 5734 5731 5729 5727 5726 5724 5723 5721 5720 5719
5791 5790 5789 5788 5786 5785 5783 5782 5779 5778 5776 5773 5771 5769 5767 5765 5762 5760 5757 5755 5753 5751 5748 5746 5744 5741 5739 5737 5734 5731 5728 5726 5723 5720 5718 5716 5714 5712 5711 5710 5708 5707 5706
5783 5782 5781 5779 5778 5776 5774 5773 5771 5769 5766 5764 5762 5760 5758 5756 5753 5750 5748 5745 5742 5740 5737 5735 5733 5730 5728 5725 5722 5719 5716 5713 5710 5708 5705 5703 5701 5700 5698 5697 5696 5695 5693
5775 5774 5772 5771 5769 5768 5766 5764 5761 5759 5757 5755 5753 5751 5749 5746 5744 5741 5738 5735 5732 5729 5726 5724 5721 5718 5716 5713 5710 5707 5704 5701 5698 5696 5693 5691 5689 5687 5686 5685 5683 5682 5680
5767 5766 5764 5762 5761 5759 5757 5755 5752 5751 5748 5746 5744 5742 5740 5737 5734 5731 5728 5725 5722 5719 5715 5712 5710 5707 5704 5701 5698 5695 5692 5689 5686 5683 5681 5679 5676 5675 5673 5672 5670 5669 5667
5759 5757 5756 5754 5753 5751 5749 5746 5744 5742 5740 5738 5736 5733 5730 5727 5724 5721 5718 5715 5711 5708 5705 5702 5699 5695 5692 5689 5686 5683 5680 5677 5674 5671 5669 5666 5664 5662 5661 5659 5657 5656 5654
5751 5750 5748 5746 5745 5743 5741 5739 5737 5734 5732 5730 5727 5724 5721 5718 5715 5711 5708 5706 5702 5698 5695 5691 5688 5684 5681 5678 5675 5671 5668 5665 5662 5659 5657 5654 5652 5650 5648 5646 5644 5643 5641
5744 5743 5741 5739 5738 5735 5733 5731 5728 5726 5723 5721 5718 5715 5712 5709 5705 5702 5699 5696 5692 5688 5685 5681 5677 5674 5670 5667 5664 5660 5657 5654 5650 5647 5644 5642 5640 5637 5635 5633 5632 5630 5628
5737 5736 5734 5732 5730 5728 5726 5723 5720 5718 5715 5712 5709 5706 5703 5700 5696 5693 5690 5686 5682 5679 5675 5671 5667 5663 5660 5656 5653 5649 5646 5643 5639 5636 5633 5631 5628 5626 5623 5621 5619 5617 5616
5731 5729 5727 5725 5723 5721 5718 5716 5713 5710 5707 5704 5701 5698 5695 5691 5688 5684 5681 5677 5673 5669 5665 5662 5658 5654 5650 5646 5642 5639 5635 5632 5629 5626 5623 5620 5618 5615 5613 5610 5608 5606 5604
5724 5722 5720 5718 5716 5713 5711 5708 5705 5702 5699 5696 5693 5689 5686 5683 5679 5675 5672 5668 5664 5660 5656 5652 5649 5645 5641 5637 5633 5629 5625 5622 5619 5616 5613 5610 5607 5605 5602 5599 5597 5595 5593
5717 5715 5713 5711 5709 5706 5703 5700 5697 5694 5691 5688 5684 5681 5677 5674 5670 5667 5663 5659 5655 5651 5647 5643 5639 5636 5632 5628 5624 5620 5616 5613 5609 5606 5603 5600 5597 5594 5591 5588 5586 5583 5581
Wind_Speed
12 12 12 12 12 12 11 11 12 12 12 13 13 13 13 14 14 15 16 16 16 16 17 17 17 17 17 18 18 18 18 18 19 20 20 20 20 21 22 22 22 22 23
14 15 15 14 14 14 13 14 14 15 15 15 16 16 16 16 16 16 17 17 18 18 18 18 18 18 18 19 19 20 19 19 20 20 21 21 21 22 22 23 23 24 24
16 17 17 17 16 16 16 16 16 16 17 17 17 17 18 18 19 19 19 19 20 20 20 20 20 20 20 20 20 20 21 21 21 21 21 22 23 23 24 24 25 25 25
18 18 18 18 19 19 18 18 18 18 18 19 19 19 19 20 21 21 22 22 22 22 22 22 21 22 21 22 22 22 22 22 22 22 23 24 24 25 26 26 27 27 27
18 18 18 19 20 20 20 21 21 20 21 21 21 22 22 23 23 23 24 24 24 24 24 24 24 24 24 24 24 24 24 25 25 25 25 26 26 27 27 28 28 28 29
19 20 20 20 21 21 22 23 23 23 24 24 24 25 25 25 25 25 25 26 26 27 26 27 27 27 26 26 27 27 27 28 28 28 28 28 28 28 28 29 29 30 30
21 21 21 22 22 22 23 23 24 25 26 26 27 26 26 27 27 27 28 28 29 29 29 29 28 29 29 29 29 29 30 30 31 31 31 31 30 30 30 30 31 31 32
21 21 22 23 23 24 24 25 26 27 28 28 28 28 28 28 29 30 30 31 31 30 30 29 30 30 30 31 31 31 32 32 33 33 33 32 32 32 32 32 33 33 33
22 23 24 24 25 26 27 27 28 28 29 30 30 30 30 30 31 32 32 32 32 32 31 31 31 31 32 33 34 34 34 34 35 35 35 34 33 33 34 35 36 36 35
24 24 25 25 26 26 27 28 29 29 30 30 31 31 32 32 33 33 34 33 33 33 33 33 33 34 34 35 35 36 36 36 36 36 37 37 36 36 36 37 37 38 38
25 25 26 26 27 27 28 29 29 30 30 31 32 32 33 33 34 34 34 35 35 35 34 34 35 35 36 36 36 37 37 37 38 38 38 38 38 38 39 39 39 39 38
25 26 26 27 28 28 29 29 29 30 30 31 32 33 33 33 34 34 34 35 35 35 35 36 37 37 37 38 38 38 38 39 39 39 40 40 40 40 41 41 41 40 40
26 27 27 27 28 28 29 30 30 30 31 31 32 33 33 33 34 34 35 35 36 36 37 37 38 38 38 39 39 39 40 40 41 41 42 42 43 43 43 42 42 42 41
26 27 28 28 29 29 30 30 30 30 30 31 31 31 32 32 33 34 34 34 35 36 37 37 37 37 37 38 39 40 41 42 42 43 43 44 44 43 43 43 42 42 41
26 27 28 28 29 30 30 30 31 30 31 31 32 32 32 32 33 34 34 35 36 37 36 37 37 37 38 38 39 40 41 42 43 43 44 44 44 43 43 42 42 42 41
25 25 27 28 29 29 29 30 30 31 31 32 32 33 33 33 34 34 34 34 35 36 37 37 37 37 37 38 39 40 41 41 42 42 42 42 42 42 42 42 41 41 41
25 26 26 27 28 29 29 30 30 31 32 32 33 33 33 33 33 33 33 34 36 37 37 37 36 37 37 38 39 39 40 40 40 40 40 40 41 41 41 41 40 40 40
26 26 26 27 28 29 30 30 30 30 31 32 32 32 33 33 33 33 33 34 35 36 36 36 36 37 37 38 38 38 39 39 39 40 39 39 39 39 38 39 40 40 40
26 26 27 27 28 29 29 29 29 30 31 31 31 31 32 33 33 33 34 34 35 35 35 35 36 36 37 37 37 37 38 38 38 38 38 38 38 38 39 39 40 40 40
27 27 27 27 28 28 28 29 29 30 30 31 31 31 32 33 34 34 34 35 35 35 34 35 35 36 36 36 36 36 37 37 37 37 38 38 38 38 38 39 39 40 41
26 26 27 27 27 28 28 29 29 29 31 31 32 32 32 33 34 34 34 34 33 33 34 34 35 35 35 36 36 36 36 36 36 37 37 38 38 38 38 38 39 40 40
25 25 25 25 26 27 28 29 29 30 30 31 31 32 32 33 33 33 32 32 32 33 33 34 34 34 35 35 35 35 35 35 36 36 37 37 37 36 37 37 37 39 39
23 23 24 25 25 27 27 28 28 28 28 29 29 30 30 31 31 31 32 32 32 33 33 33 33 34 34 34 34 34 34 34 34 35 35 35 35 35 35 34 34 34 35
23 23 24 25 26 27 27 27 27 27 28 29 29 30 30 31 31 31 32 32 32 33 33 33 34 34 33 33 33 32 32 32 32 32 32 33 33 32 32 32 33 33 34
23 24 25 26 26 26 26 27 27 27 28 28 29 29 30 30 31 31 32 32 33 33 33 33 33 32 32 32 31 31 30 30 30 31 32 32 32 32 32 33 33 33 33
23 24 25 26 26 26 27 27 27 27 28 28 29 29 30 31 31 31 32 32 32 32 31 31 31 30 30 31 31 31 31 31 31 31 31 31 31 31 31 31 31 31 30
Wind_Direction
273 272 273 268 265 265 265 266 269 272 275 278 279 280 284 285 284 283 283 283 283 282 283 284 285 285 286 286 285 282 279 277 277 280 281 281 281 281 281 278 278 280 282
267 269 269 268 265 266 267 269 271 272 274 278 280 282 282 282 283 282 283 281 281 281 280 280 282 284 285 285 284 283 283 281 279 279 280 282 282 281 281 279 278 279 280
268 270 269 267 265 267 270 272 274 275 277 280 280 282 282 282 283 282 281 280 281 281 280 280 281 282 283 283 283 283 283 284 283 282 282 282 283 282 281 279 280 281 282
269 269 269 268 267 267 270 272 274 275 277 280 281 281 283 284 282 280 280 281 281 281 281 281 281 281 282 283 283 283 283 284 284 283 282 283 284 283 282 281 282 282 282
271 268 268 269 270 270 270 272 273 274 278 279 280 281 283 283 282 282 281 280 280 280 280 280 281 280 280 281 282 282 282 283 283 282 282 282 283 283 283 282 282 281 281
271 270 267 269 270 270 271 273 272 275 277 278 279 280 282 283 283 281 279 279 279 280 281 281 280 278 278 278 279 280 280 282 283 282 282 282 282 283 283 283 283 281 281
274 270 270 272 272 272 275 275 275 275 276 277 278 280 280 282 282 279 279 278 279 280 281 281 281 278 277 278 277 278 280 282 282 282 282 282 282 281 281 282 282 282 281
272 272 274 275 275 274 274 276 277 277 278 278 279 279 279 280 280 282 280 279 280 280 281 280 280 279 278 278 279 279 279 280 282 282 283 283 282 281 281 281 281 281 281
271 271 272 275 275 275 276 278 279 280 279 279 280 279 279 280 280 280 280 279 279 280 280 280 281 280 278 279 281 281 280 280 281 281 281 281 282 282 282 281 281 281 280
270 271 273 276 277 278 278 280 281 281 280 280 281 280 280 280 280 280 279 279 280 280 280 280 281 280 279 280 281 281 281 281 281 280 280 281 281 281 282 283 282 281 281
271 274 275 277 278 279 279 280 281 281 280 280 280 281 281 280 279 279 279 279 280 281 280 280 281 281 281 280 280 281 281 281 281 280 280 281 281 281 281 281 281 280 280
272 274 276 278 279 281 281 280 281 280 280 281 281 281 281 280 279 280 280 281 282 281 280 280 280 280 280 280 281 282 282 281 281 281 280 281 282 282 282 280 279 279 279
271 273 276 278 280 282 284 283 281 281 280 280 280 280 281 281 280 281 281 282 283 283 282 282 282 282 281 280 281 282 282 282 281 281 281 282 282 282 281 280 280 280 279
273 275 277 279 281 283 284 284 284 283 282 283 282 283 284 283 282 283 283 283 284 283 283 282 283 283 283 283 283 283 282 282 282 282 281 281 281 281 280 279 279 278 278
275 276 277 280 283 284 284 284 284 284 284 285 286 288 287 286 285 285 285 284 284 284 283 283 283 284 285 285 285 285 284 284 284 283 282 280 280 279 280 280 278 276 277
276 277 278 280 283 284 284 284 284 284 285 287 288 290 289 289 289 288 289 288 286 287 285 284 285 286 286 287 287 287 287 285 285 284 283 282 281 280 279 278 278 277 277
278 278 279 281 283 285 286 285 285 285 286 287 288 289 289 291 291 291 291 290 289 288 288 287 287 288 289 288 288 288 286 286 285 285 284 282 282 282 280 278 278 277 277
278 278 279 281 284 285 286 286 286 287 287 288 290 290 290 291 292 291 292 292 291 290 289 288 289 290 290 290 289 289 288 287 286 286 285 283 283 282 280 279 279 278 277
279 278 279 283 285 286 287 287 287 287 289 290 290 291 291 291 291 291 293 293 292 291 291 290 290 290 290 291 291 291 290 289 289 288 285 283 282 280 280 279 279 277 277
278 279 280 282 285 287 288 288 288 288 289 290 291 292 292 293 293 293 292 293 294 294 294 294 293 292 292 291 291 291 290 289 289 289 286 284 283 281 280 278 278 277 277
280 281 282 283 285 287 287 287 288 289 291 291 291 293 293 294 293 293 294 296 297 297 296 296 296 295 295 294 293 292 290 289 289 288 287 285 284 283 282 280 279 278 277
284 284 284 285 286 286 287 288 288 289 290 292 293 294 295 295 296 297 298 299 299 298 298 298 298 298 297 296 295 294 292 290 290 289 288 287 286 285 284 282 281 280 279
282 285 286 287 287 289 291 293 293 294 294 295 295 296 299 299 300 300 300 301 301 300 300 301 301 300 299 298 298 297 296 294 294 292 290 289 288 288 286 284 282 282 280
282 285 288 291 291 293 294 295 296 297 297 299 300 301 302 302 302 301 301 300 300 300 301 301 301 302 301 302 302 300 298 296 295 294 293 292 291 291 290 288 286 283 281
284 288 290 293 295 295 296 297 298 298 299 301 302 302 302 303 302 302 301 302 302 303 302 302 302 302 303 304 304 303 302 299 297 295 293 292 291 290 289 288 287 284 282
284 288 292 293 295 296 296 297 298 300 302 303 303 302 302 303 303 303 303 303 304 304 304 303 303 303 305 307 307 305 303 302 300 298 297 295 293 291 290 289 288 286 284